Datetime,Satellite RMSE,Satellite Mean Vector Difference,Satellite Standard Deviation,Satellite Normalized RMSE,Satellite Mean Absolute Directional Difference,Observational count (1000s)
01 Nov 2018 00:00,6.32,5.58,2.97,.28,17.78,.03
01 Nov 2018 12:00,na,na,na,na,na,na
02 Nov 2018 00:00,7.28,7.01,1.96,.35,30.97,.02
02 Nov 2018 12:00,na,na,na,na,na,na
03 Nov 2018 00:00,6.66,6.29,2.16,.29,20.13,.03
03 Nov 2018 12:00,na,na,na,na,na,na
04 Nov 2018 00:00,na,na,na,na,na,na
04 Nov 2018 12:00,na,na,na,na,na,na
05 Nov 2018 00:00,8.31,7.39,3.80,.24,7.70,.02
05 Nov 2018 12:00,5.18,4.49,2.57,.24,9.39,.09
06 Nov 2018 00:00,7.11,6.31,3.27,.35,9.87,.08
06 Nov 2018 12:00,6.20,4.82,3.90,.31,10.01,.12
07 Nov 2018 00:00,6.35,5.68,2.83,.26,8.89,.13
07 Nov 2018 12:00,5.62,4.78,2.95,.29,8.02,.21
08 Nov 2018 00:00,7.15,6.11,3.70,.26,8.19,.18
08 Nov 2018 12:00,5.54,4.35,3.42,.33,12.27,.17
09 Nov 2018 00:00,6.00,4.98,3.34,.28,8.00,.15
09 Nov 2018 12:00,5.31,4.56,2.71,.31,9.28,.17
10 Nov 2018 00:00,4.96,3.92,3.04,.31,11.61,.15
10 Nov 2018 12:00,5.99,5.04,3.23,.25,6.40,.15
11 Nov 2018 00:00,5.59,4.82,2.83,.20,7.75,.09
11 Nov 2018 12:00,6.45,5.31,3.65,.23,7.45,.09
12 Nov 2018 00:00,7.48,6.23,4.13,.26,9.65,.06
12 Nov 2018 12:00,5.83,4.87,3.20,.30,6.06,.09
13 Nov 2018 00:00,6.75,5.66,3.66,.41,11.75,.02
13 Nov 2018 12:00,6.55,6.00,2.63,.28,17.29,.02
14 Nov 2018 00:00,6.20,5.25,3.28,.40,12.35,.07
15 Nov 2018 00:00,5.42,4.54,2.97,.35,12.65,.07
15 Nov 2018 12:00,5.46,4.59,2.96,.28,9.29,.16
16 Nov 2018 00:00,7.13,6.20,3.52,.27,8.93,.07
16 Nov 2018 12:00,5.26,4.31,3.01,.25,6.12,.10
17 Nov 2018 00:00,6.96,5.72,3.95,.28,7.47,.10
17 Nov 2018 12:00,4.50,3.59,2.70,.21,5.03,.06
18 Nov 2018 00:00,5.45,4.70,2.76,.26,8.11,.12
18 Nov 2018 12:00,5.02,4.31,2.56,.17,5.06,.13
19 Nov 2018 00:00,6.34,5.15,3.69,.30,9.89,.08
19 Nov 2018 12:00,5.25,4.42,2.83,.22,8.04,.09
20 Nov 2018 00:00,6.22,5.25,3.33,.28,9.52,.08
20 Nov 2018 12:00,5.15,4.30,2.83,.23,10.67,.12
21 Nov 2018 00:00,6.76,6.07,2.97,.26,11.45,.06
21 Nov 2018 12:00,7.51,7.10,2.45,.28,6.87,.03
22 Nov 2018 00:00,5.61,4.79,2.92,.21,7.03,.03
22 Nov 2018 12:00,6.57,5.69,3.29,.25,5.05,.06
23 Nov 2018 00:00,4.10,3.55,2.06,.14,4.80,.05
23 Nov 2018 12:00,5.70,5.14,2.47,.28,7.50,.01
24 Nov 2018 00:00,7.01,5.83,3.90,.38,12.49,.03
24 Nov 2018 12:00,7.23,6.66,2.81,.29,11.55,.04
25 Nov 2018 00:00,5.74,5.02,2.77,.25,9.03,.03
25 Nov 2018 12:00,6.70,5.68,3.55,.35,13.16,.05
26 Nov 2018 00:00,5.41,4.44,3.09,.27,9.82,.05
26 Nov 2018 12:00,8.92,7.80,4.32,.39,17.64,.04
27 Nov 2018 00:00,10.43,8.77,5.65,.48,10.47,.06
27 Nov 2018 12:00,7.09,6.36,3.13,.23,11.60,.05
28 Nov 2018 00:00,5.71,4.81,3.09,.43,12.03,.03
28 Nov 2018 12:00,6.25,5.41,3.12,.27,14.55,.07
29 Nov 2018 00:00,7.40,6.60,3.34,.34,14.80,.07
29 Nov 2018 12:00,7.09,6.29,3.27,.31,12.70,.04
30 Nov 2018 00:00,6.47,5.76,2.95,.29,11.83,.02
30 Nov 2018 12:00,7.37,6.69,3.09,.34,18.60,.02
01 Dec 2018 00:00,5.67,4.92,2.81,.28,15.56,.05
01 Dec 2018 12:00,6.98,5.55,4.22,.47,14.54,.07
02 Dec 2018 00:00,5.60,4.75,2.95,.36,9.53,.05
02 Dec 2018 12:00,6.02,4.81,3.61,.31,9.13,.05
03 Dec 2018 00:00,5.59,4.58,3.20,.17,9.35,.07
03 Dec 2018 12:00,5.42,4.87,2.37,.19,8.47,.08
04 Dec 2018 00:00,6.28,5.45,3.11,.22,6.41,.10
05 Dec 2018 12:00,6.46,5.51,3.37,.24,6.70,.15
06 Dec 2018 00:00,5.39,4.77,2.49,.21,7.09,.10
06 Dec 2018 12:00,6.15,5.18,3.31,.33,11.02,.09
07 Dec 2018 00:00,4.80,3.98,2.67,.37,13.22,.07
07 Dec 2018 12:00,7.61,6.20,4.42,.46,12.62,.04
08 Dec 2018 00:00,6.93,5.76,3.85,.34,11.37,.05
08 Dec 2018 12:00,3.66,3.21,1.76,.19,8.66,.02
09 Dec 2018 00:00,6.72,5.81,3.37,.30,11.61,.06
09 Dec 2018 12:00,5.48,4.14,3.58,.29,7.69,.07
10 Dec 2018 00:00,7.79,7.14,3.13,.34,11.53,.03
10 Dec 2018 12:00,5.08,4.31,2.69,.19,8.12,.06
11 Dec 2018 00:00,6.99,6.44,2.71,.34,18.49,.02
11 Dec 2018 12:00,8.22,7.44,3.49,.28,15.16,.03
12 Dec 2018 00:00,10.17,7.93,6.36,.56,25.49,.01
12 Dec 2018 12:00,5.69,5.07,2.58,.21,4.98,.01
13 Dec 2018 00:00,7.53,5.97,4.59,.41,7.55,.02
13 Dec 2018 12:00,5.75,5.25,2.33,.32,13.52,.03
14 Dec 2018 00:00,4.03,3.42,2.13,.28,10.08,.07
14 Dec 2018 12:00,5.85,5.07,2.93,.24,7.68,.02
15 Dec 2018 00:00,4.87,3.89,2.92,.20,8.67,.03
15 Dec 2018 12:00,5.19,4.54,2.51,.20,7.41,.03
16 Dec 2018 00:00,9.06,7.92,4.40,.38,14.85,.01
16 Dec 2018 12:00,6.55,5.51,3.53,.28,14.64,.04
17 Dec 2018 00:00,6.86,5.59,3.96,.31,11.87,.05
17 Dec 2018 12:00,7.42,6.51,3.57,.29,13.27,.05
18 Dec 2018 00:00,6.21,5.48,2.91,.27,7.57,.06
18 Dec 2018 12:00,5.98,5.37,2.62,.27,14.80,.10
19 Dec 2018 00:00,8.70,7.89,3.65,.41,24.87,.05
19 Dec 2018 12:00,5.90,4.71,3.55,.28,10.94,.06
20 Dec 2018 00:00,7.54,7.00,2.80,.32,13.37,.02
20 Dec 2018 12:00,6.54,5.80,3.00,.28,8.95,.06
21 Dec 2018 00:00,6.72,5.79,3.40,.28,7.37,.02
21 Dec 2018 12:00,8.45,7.50,3.90,.36,21.27,.03
22 Dec 2018 00:00,9.11,8.29,3.77,.60,27.83,.01
22 Dec 2018 12:00,6.35,5.34,3.43,.37,11.75,.09
23 Dec 2018 00:00,6.98,6.30,2.98,.30,11.12,.05
23 Dec 2018 12:00,6.41,5.68,2.96,.21,6.14,.12
24 Dec 2018 00:00,7.76,6.66,3.99,.23,4.49,.03
24 Dec 2018 12:00,5.51,4.94,2.42,.21,6.37,.14
25 Dec 2018 00:00,7.12,6.23,3.44,.30,8.01,.04
25 Dec 2018 12:00,6.71,5.81,3.36,.29,7.74,.04
26 Dec 2018 00:00,4.42,4.01,1.85,.22,7.58,.02
26 Dec 2018 12:00,5.57,4.44,3.36,.26,7.84,.03
27 Dec 2018 00:00,4.98,4.45,2.24,.28,8.79,.05
27 Dec 2018 12:00,4.75,4.52,1.45,.21,8.07,.01
28 Dec 2018 00:00,8.83,7.54,4.58,.44,21.47,.01
28 Dec 2018 12:00,4.72,4.62,.96,.42,17.94,.01
29 Dec 2018 00:00,10.52,10.42,1.45,.58,30.32,.00
29 Dec 2018 12:00,6.58,6.15,2.33,.37,18.06,.01
30 Dec 2018 00:00,4.65,4.42,1.42,.20,6.48,.01
30 Dec 2018 12:00,7.56,6.37,4.06,.34,16.71,.05
31 Dec 2018 00:00,6.62,5.83,3.13,.28,11.47,.09
31 Dec 2018 12:00,7.34,6.27,3.82,.25,7.55,.05
01 Jan 2019 00:00,na,na,na,na,na,na
01 Jan 2019 12:00,7.71,7.16,2.85,.30,12.94,.07
02 Jan 2019 00:00,11.44,10.98,3.21,.44,2.93,.04
02 Jan 2019 12:00,6.49,5.69,3.12,.33,11.85,.03
03 Jan 2019 00:00,5.26,4.53,2.68,.29,12.42,.04
03 Jan 2019 12:00,5.17,4.79,1.93,.40,14.48,.02
04 Jan 2019 00:00,5.37,4.82,2.37,.46,13.33,.04
04 Jan 2019 12:00,4.85,4.29,2.26,.27,8.84,.05
05 Jan 2019 00:00,6.77,6.15,2.84,.38,8.82,.06
09 Jan 2019 00:00,7.56,6.16,4.37,.37,10.04,.03
09 Jan 2019 12:00,5.48,4.48,3.15,.29,7.65,.09
10 Jan 2019 00:00,8.01,7.05,3.80,.35,8.15,.05
10 Jan 2019 12:00,6.04,5.19,3.08,.27,11.57,.05
11 Jan 2019 00:00,6.34,5.35,3.40,.27,6.86,.06
11 Jan 2019 12:00,6.78,5.75,3.58,.31,11.73,.04
12 Jan 2019 00:00,6.57,5.98,2.73,.28,10.44,.05
12 Jan 2019 12:00,8.28,7.62,3.23,.48,16.13,.03
13 Jan 2019 00:00,9.74,8.47,4.81,.40,11.11,.01
13 Jan 2019 12:00,5.66,4.59,3.30,.29,10.98,.03
14 Jan 2019 00:00,6.21,5.41,3.05,.22,8.96,.04
14 Jan 2019 12:00,7.09,5.84,4.01,.22,4.81,.09
15 Jan 2019 00:00,5.04,4.54,2.20,.19,6.95,.05
15 Jan 2019 12:00,6.71,5.68,3.55,.34,14.68,.06
16 Jan 2019 00:00,5.54,4.60,3.09,.24,9.01,.08
16 Jan 2019 12:00,5.17,4.22,2.98,.24,7.94,.07
17 Jan 2019 00:00,4.52,3.90,2.29,.21,8.82,.04
17 Jan 2019 12:00,6.13,5.52,2.67,.31,9.00,.04
18 Jan 2019 00:00,6.06,5.15,3.19,.39,8.12,.05
18 Jan 2019 12:00,6.15,5.69,2.33,.26,12.55,.04
19 Jan 2019 00:00,6.20,5.48,2.89,.22,8.32,.01
19 Jan 2019 12:00,5.38,4.55,2.87,.24,8.03,.05
20 Jan 2019 00:00,4.89,4.45,2.03,.35,10.44,.02
20 Jan 2019 12:00,7.35,6.64,3.14,.67,11.76,.03
21 Jan 2019 00:00,9.63,9.18,2.90,.73,6.08,.04
21 Jan 2019 12:00,6.65,6.04,2.79,.24,8.05,.05
22 Jan 2019 00:00,5.84,5.50,1.97,.22,8.33,.01
22 Jan 2019 12:00,6.40,5.69,2.94,.19,4.87,.03
23 Jan 2019 00:00,7.67,6.20,4.51,.23,3.82,.01
23 Jan 2019 12:00,5.77,4.69,3.36,.31,7.82,.04
24 Jan 2019 00:00,6.30,5.67,2.75,.28,9.24,.05
24 Jan 2019 12:00,6.91,6.42,2.56,.32,11.34,.03
25 Jan 2019 00:00,8.44,6.45,5.45,.28,9.72,.02
25 Jan 2019 12:00,8.29,6.81,4.73,.25,9.07,.03
26 Jan 2019 00:00,7.22,6.71,2.65,.32,9.50,.03
26 Jan 2019 12:00,8.80,5.79,6.63,.35,5.94,.01
27 Jan 2019 00:00,5.17,4.50,2.54,.19,5.08,.03
27 Jan 2019 12:00,5.45,4.13,3.54,.30,7.44,.01
28 Jan 2019 00:00,9.29,9.05,2.14,.37,14.93,.01
28 Jan 2019 12:00,6.91,6.03,3.38,.26,5.91,.02
29 Jan 2019 00:00,2.29,2.08,.97,.07,2.28,.00
29 Jan 2019 12:00,8.80,8.40,2.64,.29,7.94,.02
30 Jan 2019 00:00,7.63,6.58,3.87,.34,11.92,.04
30 Jan 2019 12:00,7.51,6.03,4.48,.39,12.18,.04
31 Jan 2019 00:00,6.87,5.91,3.50,.24,9.53,.02
31 Jan 2019 12:00,7.03,5.93,3.77,.30,10.93,.07
01 Feb 2019 00:00,6.39,5.34,3.51,.33,19.19,.04
01 Feb 2019 12:00,5.81,5.25,2.50,.33,14.64,.04
02 Feb 2019 00:00,na,na,na,na,na,na
02 Feb 2019 12:00,10.46,9.01,5.32,.36,8.61,.02
03 Feb 2019 00:00,7.56,6.72,3.46,.52,22.23,.01
03 Feb 2019 12:00,6.02,5.34,2.79,.38,12.48,.03
04 Feb 2019 00:00,6.44,5.64,3.11,.25,6.83,.01
04 Feb 2019 12:00,5.00,4.44,2.30,.22,8.49,.05
05 Feb 2019 00:00,5.41,4.48,3.03,.28,11.12,.03
05 Feb 2019 12:00,5.93,4.92,3.31,.34,14.70,.03
06 Feb 2019 00:00,4.40,3.83,2.16,.25,13.62,.03
06 Feb 2019 12:00,9.36,7.91,5.00,.40,11.47,.03
07 Feb 2019 00:00,5.99,5.25,2.88,.24,10.25,.05
07 Feb 2019 12:00,6.54,5.48,3.56,.41,15.20,.04
08 Feb 2019 00:00,6.00,5.62,2.09,.30,10.43,.05
08 Feb 2019 12:00,6.15,5.23,3.23,.31,9.09,.02
09 Feb 2019 00:00,9.93,9.68,2.19,.82,37.99,.01
09 Feb 2019 12:00,6.65,5.85,3.15,.32,16.49,.04
10 Feb 2019 00:00,5.58,4.91,2.63,.22,6.90,.07
10 Feb 2019 12:00,6.54,5.77,3.07,.33,8.58,.10
11 Feb 2019 00:00,7.99,6.72,4.33,.44,31.35,.06
11 Feb 2019 12:00,4.84,3.91,2.85,.42,19.93,.05
12 Feb 2019 00:00,4.46,3.99,1.98,.71,28.68,.03
12 Feb 2019 12:00,5.28,4.32,3.03,.27,9.28,.03
13 Feb 2019 00:00,3.53,3.03,1.82,.21,5.74,.01
13 Feb 2019 12:00,4.31,3.75,2.13,.34,12.75,.04
14 Feb 2019 00:00,7.26,6.59,3.04,.41,16.08,.03
14 Feb 2019 12:00,6.41,5.59,3.13,.33,13.79,.02
15 Feb 2019 00:00,7.70,6.93,3.36,.42,17.37,.02
15 Feb 2019 12:00,6.44,5.68,3.03,.26,9.94,.06
16 Feb 2019 00:00,6.74,6.39,2.13,.26,8.01,.01
16 Feb 2019 12:00,7.17,6.17,3.65,.31,5.82,.05
17 Feb 2019 00:00,6.66,5.85,3.19,.31,8.68,.03
17 Feb 2019 12:00,7.46,6.68,3.33,.20,6.03,.07
18 Feb 2019 00:00,7.65,6.78,3.53,.28,19.27,.01
18 Feb 2019 12:00,7.48,6.71,3.30,.30,11.47,.04
19 Feb 2019 00:00,11.08,8.85,6.67,.37,17.07,.01
19 Feb 2019 12:00,7.53,6.67,3.50,.33,11.18,.04
20 Feb 2019 00:00,6.68,5.81,3.29,.27,8.79,.01
20 Feb 2019 12:00,6.90,5.98,3.43,.22,7.82,.04
21 Feb 2019 00:00,7.08,5.86,3.97,.23,5.54,.05
21 Feb 2019 12:00,9.04,8.29,3.59,.26,4.91,.05
22 Feb 2019 00:00,6.85,6.25,2.79,.18,8.21,.02
22 Feb 2019 12:00,5.90,5.15,2.88,.21,8.13,.04
23 Feb 2019 00:00,8.31,7.61,3.35,.26,7.15,.01
23 Feb 2019 12:00,5.38,4.82,2.39,.42,12.88,.03
24 Feb 2019 00:00,5.01,4.35,2.49,.24,7.20,.03
24 Feb 2019 12:00,7.52,6.50,3.79,.32,15.50,.04
25 Feb 2019 00:00,8.39,7.68,3.38,.39,15.20,.02
25 Feb 2019 12:00,7.63,6.85,3.37,.35,13.23,.04
26 Feb 2019 00:00,6.76,5.89,3.32,.36,12.89,.04
26 Feb 2019 12:00,6.77,5.97,3.19,.38,13.69,.08
27 Feb 2019 00:00,5.16,4.38,2.72,.31,13.96,.05
27 Feb 2019 12:00,6.23,5.63,2.66,.38,19.09,.04
28 Feb 2019 00:00,6.63,6.11,2.58,.31,8.47,.02
28 Feb 2019 12:00,4.59,4.06,2.15,.24,10.68,.07
01 Mar 2019 00:00,5.47,4.41,3.24,.33,12.58,.02
01 Mar 2019 12:00,6.18,5.39,3.02,.44,17.92,.09
02 Mar 2019 00:00,6.95,5.31,4.47,.44,8.04,.02
02 Mar 2019 12:00,5.75,5.01,2.81,.30,8.44,.04
03 Mar 2019 00:00,6.60,5.69,3.35,.30,18.64,.01
03 Mar 2019 12:00,5.42,4.81,2.49,.30,7.88,.04
04 Mar 2019 00:00,4.95,4.21,2.61,.24,9.25,.03
04 Mar 2019 12:00,5.39,4.48,2.99,.28,9.43,.05
05 Mar 2019 00:00,3.59,3.32,1.38,.25,8.62,.01
05 Mar 2019 12:00,5.06,4.23,2.78,.29,8.44,.05
06 Mar 2019 00:00,8.24,7.58,3.21,.34,6.60,.01
06 Mar 2019 12:00,5.48,4.50,3.12,.20,4.12,.05
07 Mar 2019 00:00,7.37,6.94,2.47,.38,22.13,.03
07 Mar 2019 12:00,5.82,5.34,2.32,.28,16.18,.03
08 Mar 2019 00:00,5.45,4.98,2.22,.27,6.25,.00
08 Mar 2019 12:00,6.57,5.78,3.11,.45,17.07,.03
09 Mar 2019 00:00,5.08,4.68,1.97,.57,30.17,.00
11 Mar 2019 00:00,6.19,5.77,2.23,.23,9.85,.01
11 Mar 2019 12:00,6.36,5.91,2.35,.24,10.20,.02
13 Mar 2019 12:00,na,na,na,na,na,na
14 Mar 2019 00:00,8.28,7.27,3.95,.47,11.75,.01
14 Mar 2019 12:00,5.98,5.25,2.87,.40,8.93,.04
15 Mar 2019 00:00,5.05,4.06,3.00,.20,6.53,.08
15 Mar 2019 12:00,4.95,4.19,2.63,.31,9.62,.07
16 Mar 2019 00:00,5.39,4.72,2.60,.23,9.88,.02
16 Mar 2019 12:00,6.20,5.09,3.55,.32,8.66,.03
17 Mar 2019 00:00,7.09,5.96,3.85,.39,12.86,.01
17 Mar 2019 12:00,8.07,6.67,4.55,.43,19.46,.06
18 Mar 2019 00:00,11.84,11.04,4.28,.53,29.96,.02
18 Mar 2019 12:00,10.44,7.48,7.28,.53,14.28,.04
19 Mar 2019 00:00,4.71,3.76,2.83,.48,17.98,.06
19 Mar 2019 12:00,6.78,6.21,2.71,.48,13.03,.05
20 Mar 2019 00:00,4.88,4.32,2.27,.28,9.76,.04
20 Mar 2019 12:00,7.44,6.60,3.43,.31,9.95,.04
21 Mar 2019 00:00,8.95,8.19,3.61,.34,7.97,.03
21 Mar 2019 12:00,5.24,4.42,2.81,.28,8.76,.07
22 Mar 2019 00:00,5.21,4.16,3.14,.26,4.55,.07
22 Mar 2019 12:00,7.76,6.23,4.62,.56,26.63,.05
23 Mar 2019 00:00,5.72,5.28,2.19,.46,21.35,.01
23 Mar 2019 12:00,5.18,4.89,1.72,.35,20.68,.01
24 Mar 2019 00:00,6.39,5.76,2.76,.29,12.71,.01
24 Mar 2019 12:00,4.14,3.61,2.02,.17,5.98,.05
25 Mar 2019 00:00,5.19,4.46,2.65,.22,7.61,.05
25 Mar 2019 12:00,6.57,5.67,3.32,.28,7.06,.06
26 Mar 2019 00:00,6.26,5.87,2.15,.27,11.83,.05
26 Mar 2019 12:00,7.72,6.85,3.55,.38,12.15,.01
27 Mar 2019 00:00,6.97,5.93,3.65,.34,13.82,.01
27 Mar 2019 12:00,10.31,9.46,4.10,.40,7.69,.00
28 Mar 2019 00:00,5.42,5.15,1.69,.18,5.05,.01
28 Mar 2019 12:00,6.20,6.03,1.45,.35,7.81,.00
29 Mar 2019 00:00,6.12,5.47,2.74,.32,10.51,.02
29 Mar 2019 12:00,6.93,6.14,3.20,.36,12.52,.05
30 Mar 2019 00:00,5.44,4.74,2.65,.55,11.27,.03
30 Mar 2019 12:00,4.77,3.93,2.70,.20,6.17,.03
31 Mar 2019 00:00,5.79,5.44,1.98,.32,10.96,.05
31 Mar 2019 12:00,7.62,6.33,4.25,.33,9.51,.07
01 Apr 2019 00:00,10.56,10.32,2.28,.58,16.50,.00
01 Apr 2019 12:00,6.39,5.58,3.11,.25,11.48,.03
02 Apr 2019 00:00,6.36,5.50,3.18,.27,7.59,.05
02 Apr 2019 12:00,6.05,5.14,3.18,.21,5.74,.02
03 Apr 2019 00:00,5.78,5.04,2.82,.18,6.50,.03
03 Apr 2019 12:00,6.01,5.56,2.30,.22,3.81,.01
04 Apr 2019 00:00,4.55,4.00,2.17,.21,6.81,.01
04 Apr 2019 12:00,4.93,4.10,2.75,.25,8.17,.04
05 Apr 2019 00:00,6.91,5.99,3.45,.31,6.16,.01
05 Apr 2019 12:00,6.97,6.11,3.35,.37,13.00,.04
08 Apr 2019 00:00,na,na,na,na,na,na
08 Apr 2019 12:00,5.82,4.87,3.19,.29,7.74,.04
09 Apr 2019 00:00,5.71,5.53,1.41,.35,8.84,.02
09 Apr 2019 12:00,6.47,5.47,3.45,.34,14.17,.06
10 Apr 2019 00:00,6.65,6.04,2.80,.35,12.43,.01
10 Apr 2019 12:00,4.64,3.80,2.66,.40,5.69,.03
11 Apr 2019 00:00,4.55,3.93,2.30,.27,8.18,.04
11 Apr 2019 12:00,7.08,6.31,3.21,.47,20.30,.06
12 Apr 2019 00:00,7.65,7.20,2.58,.53,45.63,.01
12 Apr 2019 12:00,5.76,4.91,3.00,.26,10.15,.02
13 Apr 2019 00:00,7.39,6.77,2.94,.59,29.07,.01
13 Apr 2019 12:00,7.83,6.84,3.81,.56,18.54,.05
14 Apr 2019 00:00,4.79,3.68,3.06,.22,7.13,.03
14 Apr 2019 12:00,6.29,5.07,3.72,.30,12.91,.04
15 Apr 2019 00:00,7.11,6.49,2.90,.24,8.48,.02
15 Apr 2019 12:00,7.95,7.52,2.57,.34,13.20,.01
16 Apr 2019 00:00,4.81,3.96,2.73,.25,5.69,.01
16 Apr 2019 12:00,5.53,4.58,3.10,.18,3.97,.07
17 Apr 2019 00:00,4.76,4.32,1.99,.19,6.87,.01
17 Apr 2019 12:00,5.91,4.36,3.99,.29,5.31,.04
18 Apr 2019 00:00,6.66,6.05,2.79,.30,8.90,.02
18 Apr 2019 12:00,7.54,6.53,3.77,.35,10.19,.04
19 Apr 2019 00:00,6.53,5.34,3.75,.77,14.79,.02
19 Apr 2019 12:00,4.57,4.09,2.03,.32,10.16,.04
20 Apr 2019 00:00,6.84,5.65,3.86,.56,18.14,.01
20 Apr 2019 12:00,5.00,4.56,2.06,.26,10.39,.06
21 Apr 2019 00:00,5.01,4.11,2.85,.26,8.61,.05
21 Apr 2019 12:00,7.78,6.80,3.76,.46,18.73,.08
22 Apr 2019 00:00,3.80,3.52,1.41,.32,16.92,.04
22 Apr 2019 12:00,5.87,4.92,3.20,.35,12.45,.05
23 Apr 2019 00:00,7.63,6.01,4.70,.37,8.49,.01
23 Apr 2019 12:00,6.10,5.31,3.01,.20,4.57,.03
24 Apr 2019 00:00,5.22,4.47,2.69,.33,13.70,.03
24 Apr 2019 12:00,5.05,4.36,2.55,.30,12.16,.03
25 Apr 2019 00:00,5.90,5.17,2.86,.32,17.03,.08
25 Apr 2019 12:00,5.32,4.51,2.82,.45,13.93,.17
26 Apr 2019 00:00,6.06,4.65,3.89,.51,18.41,.07
26 Apr 2019 12:00,4.64,4.05,2.26,.34,16.23,.12
27 Apr 2019 00:00,5.17,4.48,2.57,.30,9.68,.08
27 Apr 2019 12:00,4.09,3.42,2.24,.36,12.07,.06
28 Apr 2019 00:00,4.28,3.58,2.34,.24,6.18,.10
28 Apr 2019 12:00,4.89,4.38,2.17,.25,9.57,.09
29 Apr 2019 00:00,5.11,4.26,2.83,.23,8.14,.08
29 Apr 2019 12:00,5.79,5.67,1.17,.34,16.53,.01
30 Apr 2019 00:00,6.23,5.36,3.17,.25,9.43,.02
30 Apr 2019 12:00,4.65,4.01,2.35,.24,11.15,.09
01 May 2019 00:00,7.75,7.53,1.83,.39,13.13,.03
01 May 2019 12:00,4.59,3.65,2.78,.26,9.22,.10
02 May 2019 00:00,5.68,4.91,2.86,.36,22.92,.07
02 May 2019 12:00,4.69,4.14,2.21,.38,15.82,.06
03 May 2019 00:00,6.13,5.46,2.78,.34,17.03,.06
03 May 2019 12:00,5.82,5.11,2.78,.33,12.15,.12
04 May 2019 00:00,5.77,5.20,2.49,.30,10.14,.04
04 May 2019 12:00,6.48,5.43,3.54,.44,10.96,.08
05 May 2019 00:00,4.68,4.05,2.34,.27,9.42,.07
05 May 2019 12:00,5.28,4.82,2.14,.28,12.43,.12
06 May 2019 00:00,5.67,4.81,3.01,.37,11.77,.03
06 May 2019 12:00,5.93,4.71,3.61,.40,16.83,.11
07 May 2019 00:00,6.13,5.28,3.11,.33,10.18,.07
07 May 2019 12:00,5.25,4.49,2.72,.33,13.22,.16
08 May 2019 00:00,4.64,3.96,2.41,.29,11.52,.05
08 May 2019 12:00,6.23,5.46,2.99,.34,9.57,.12
09 May 2019 00:00,6.59,5.58,3.51,.33,7.60,.09
09 May 2019 12:00,5.41,4.61,2.83,.39,15.92,.09
10 May 2019 00:00,6.46,5.66,3.11,.38,11.51,.09
10 May 2019 12:00,5.82,4.73,3.40,.38,13.11,.04
11 May 2019 00:00,7.18,5.91,4.08,.30,9.28,.09
11 May 2019 12:00,5.71,5.04,2.67,.34,16.59,.18
12 May 2019 00:00,6.76,6.01,3.09,.33,10.00,.07
12 May 2019 12:00,4.75,4.11,2.37,.38,14.06,.20
13 May 2019 00:00,5.66,4.94,2.74,.41,14.26,.07
13 May 2019 12:00,5.26,4.49,2.74,.31,12.71,.24
14 May 2019 00:00,5.81,4.89,3.13,.33,10.03,.10
14 May 2019 12:00,4.92,3.95,2.93,.33,12.59,.25
15 May 2019 00:00,6.77,5.67,3.70,.40,16.81,.06
15 May 2019 12:00,4.57,3.92,2.34,.44,17.45,.18
16 May 2019 00:00,3.85,3.44,1.73,.29,12.30,.04
16 May 2019 12:00,4.67,4.18,2.09,.37,18.40,.06
17 May 2019 00:00,5.61,4.78,2.92,.42,25.71,.03
17 May 2019 12:00,5.93,5.17,2.90,.36,13.39,.07
18 May 2019 00:00,6.28,5.32,3.34,.48,16.57,.07
18 May 2019 12:00,4.60,3.97,2.32,.33,13.52,.11
19 May 2019 00:00,6.12,5.39,2.90,.48,14.64,.05
19 May 2019 12:00,6.53,5.20,3.93,.46,18.41,.16
20 May 2019 00:00,4.93,3.97,2.91,.29,10.73,.12
20 May 2019 12:00,5.74,4.83,3.10,.38,14.90,.22
21 May 2019 00:00,6.05,4.94,3.49,.39,15.00,.12
21 May 2019 12:00,5.17,4.13,3.10,.35,13.76,.09
22 May 2019 00:00,6.67,5.89,3.13,.68,24.20,.10
22 May 2019 12:00,5.65,4.51,3.40,.33,10.84,.14
23 May 2019 00:00,7.46,6.49,3.68,.36,11.49,.05
23 May 2019 12:00,6.61,5.09,4.21,.42,16.68,.08
24 May 2019 00:00,6.57,5.74,3.20,.26,10.05,.07
24 May 2019 12:00,6.15,5.42,2.89,.39,17.73,.18
25 May 2019 00:00,6.44,5.54,3.27,.41,11.42,.08
29 May 2019 00:00,6.10,5.35,2.93,.39,13.89,.17
29 May 2019 12:00,6.26,5.45,3.08,.41,18.31,.24
30 May 2019 00:00,6.93,5.77,3.83,.41,22.78,.09
30 May 2019 12:00,7.14,6.06,3.77,.37,21.54,.10
31 May 2019 00:00,6.36,5.43,3.30,.36,11.55,.17
31 May 2019 12:00,6.06,5.10,3.25,.35,14.51,.28
01 Jun 2019 00:00,7.15,6.35,3.28,.38,17.20,.18
01 Jun 2019 12:00,5.77,4.76,3.25,.30,11.17,.41
02 Jun 2019 00:00,5.35,4.49,2.90,.34,12.28,.14
02 Jun 2019 12:00,5.61,4.67,3.10,.32,12.25,.27
03 Jun 2019 00:00,5.56,4.78,2.83,.33,12.26,.17
03 Jun 2019 12:00,5.42,4.57,2.90,.31,11.64,.25
04 Jun 2019 00:00,5.67,4.83,2.97,.36,12.51,.08
04 Jun 2019 12:00,5.43,4.70,2.71,.34,11.73,.19
05 Jun 2019 00:00,5.58,4.64,3.09,.30,10.01,.09
05 Jun 2019 12:00,4.98,4.16,2.73,.33,13.59,.12
06 Jun 2019 00:00,5.20,4.58,2.46,.28,12.91,.04
06 Jun 2019 12:00,4.46,3.81,2.32,.33,11.76,.25
07 Jun 2019 00:00,6.62,5.87,3.05,.33,8.86,.09
07 Jun 2019 12:00,5.17,4.18,3.04,.36,12.84,.21
08 Jun 2019 00:00,6.39,5.47,3.30,.35,14.54,.09
08 Jun 2019 12:00,6.39,5.42,3.38,.41,13.42,.09
09 Jun 2019 00:00,6.15,5.41,2.93,.40,14.31,.16
09 Jun 2019 12:00,5.33,4.54,2.80,.32,12.20,.13
10 Jun 2019 00:00,6.53,5.49,3.52,.38,11.25,.16
10 Jun 2019 12:00,6.54,5.94,2.73,.47,19.24,.09
11 Jun 2019 00:00,8.01,7.12,3.67,.44,19.10,.07
11 Jun 2019 12:00,5.91,5.03,3.10,.47,13.82,.22
12 Jun 2019 00:00,6.20,5.46,2.94,.36,12.95,.13
12 Jun 2019 12:00,na,na,na,na,na,na
14 Jun 2019 00:00,na,na,na,na,na,na
14 Jun 2019 12:00,na,na,na,na,na,na
15 Jun 2019 00:00,na,na,na,na,na,na
16 Jun 2019 00:00,na,na,na,na,na,na
17 Jun 2019 00:00,na,na,na,na,na,na
17 Jun 2019 12:00,6.32,5.48,3.14,.45,14.91,.14
18 Jun 2019 00:00,6.39,5.65,2.97,.43,22.08,.14
18 Jun 2019 12:00,6.00,5.14,3.08,.38,15.78,.19
19 Jun 2019 00:00,5.44,4.65,2.82,.34,13.81,.25
19 Jun 2019 12:00,5.58,4.65,3.09,.32,10.05,.25
20 Jun 2019 00:00,6.18,5.05,3.56,.43,17.11,.19
20 Jun 2019 12:00,5.68,4.74,3.13,.38,11.75,.27
21 Jun 2019 00:00,7.68,6.50,4.09,.40,15.20,.16
21 Jun 2019 12:00,6.57,5.49,3.60,.40,13.82,.20
22 Jun 2019 00:00,7.18,5.86,4.14,.41,18.84,.15
22 Jun 2019 12:00,5.80,5.13,2.70,.43,14.21,.21
23 Jun 2019 00:00,6.20,5.14,3.47,.38,13.00,.08
23 Jun 2019 12:00,5.72,4.93,2.90,.35,11.08,.24
24 Jun 2019 00:00,6.34,5.72,2.73,.35,9.39,.10
24 Jun 2019 12:00,6.22,4.96,3.75,.40,14.01,.16
25 Jun 2019 00:00,4.87,4.21,2.45,.36,12.21,.13
25 Jun 2019 12:00,5.84,4.92,3.14,.37,12.09,.36
26 Jun 2019 00:00,5.82,4.41,3.80,.40,14.11,.22
26 Jun 2019 12:00,4.16,3.36,2.45,.34,12.47,.26
27 Jun 2019 00:00,5.36,4.40,3.06,.38,12.66,.17
27 Jun 2019 12:00,5.34,4.62,2.66,.46,16.77,.24
28 Jun 2019 00:00,6.31,5.47,3.14,.45,15.05,.12
28 Jun 2019 12:00,6.65,5.23,4.11,.53,19.10,.21
29 Jun 2019 00:00,5.19,4.56,2.47,.42,14.39,.18
29 Jun 2019 12:00,5.54,4.78,2.78,.36,11.04,.28
30 Jun 2019 00:00,6.93,5.84,3.71,.59,24.39,.18
30 Jun 2019 12:00,6.29,5.27,3.43,.40,16.87,.28
01 Jul 2019 00:00,5.16,4.48,2.57,.37,11.00,.22
01 Jul 2019 12:00,4.40,3.80,2.22,.37,14.19,.26
02 Jul 2019 00:00,6.48,4.74,4.42,.42,10.98,.17
02 Jul 2019 12:00,4.58,3.69,2.72,.31,10.30,.25
03 Jul 2019 00:00,5.18,4.29,2.89,.35,13.03,.15
03 Jul 2019 12:00,5.02,4.14,2.83,.30,10.25,.33
04 Jul 2019 00:00,5.68,4.77,3.07,.37,11.09,.28
04 Jul 2019 12:00,5.17,4.22,2.99,.37,14.71,.27
05 Jul 2019 00:00,5.16,4.37,2.75,.37,10.51,.25
05 Jul 2019 12:00,5.30,4.49,2.80,.44,17.08,.27
06 Jul 2019 00:00,5.99,4.99,3.31,.44,15.02,.17
06 Jul 2019 12:00,5.39,4.21,3.36,.43,12.71,.33
07 Jul 2019 00:00,5.40,4.30,3.26,.33,13.04,.24
07 Jul 2019 12:00,4.90,4.11,2.67,.33,10.20,.23
08 Jul 2019 00:00,6.44,5.60,3.17,.33,10.16,.26
08 Jul 2019 12:00,6.37,5.39,3.40,.37,15.18,.16
09 Jul 2019 00:00,6.18,5.22,3.29,.45,17.63,.09
09 Jul 2019 12:00,5.95,5.12,3.04,.38,17.34,.19
10 Jul 2019 00:00,5.85,5.15,2.77,.43,20.25,.19
10 Jul 2019 12:00,7.53,6.03,4.51,.47,16.46,.19
11 Jul 2019 00:00,5.34,4.64,2.64,.40,18.43,.15
11 Jul 2019 12:00,5.28,4.62,2.56,.40,18.90,.09
12 Jul 2019 00:00,4.24,3.43,2.49,.34,12.94,.18
12 Jul 2019 12:00,5.57,4.77,2.87,.39,15.59,.20
13 Jul 2019 00:00,5.29,4.33,3.02,.35,13.03,.27
13 Jul 2019 12:00,4.47,3.65,2.58,.33,13.06,.45
14 Jul 2019 00:00,4.69,4.07,2.32,.25,10.99,.35
14 Jul 2019 12:00,5.52,4.60,3.05,.36,13.60,.28
15 Jul 2019 00:00,5.31,4.63,2.60,.30,9.47,.19
15 Jul 2019 12:00,5.16,4.36,2.75,.38,17.40,.36
16 Jul 2019 00:00,5.49,4.69,2.86,.42,14.47,.22
16 Jul 2019 12:00,5.59,4.58,3.20,.41,19.29,.25
17 Jul 2019 00:00,5.32,4.36,3.05,.35,11.78,.21
17 Jul 2019 12:00,5.52,4.48,3.23,.53,24.16,.20
18 Jul 2019 00:00,5.88,5.12,2.90,.35,14.62,.10
18 Jul 2019 12:00,6.66,5.69,3.46,.46,18.73,.33
19 Jul 2019 00:00,5.37,4.56,2.83,.44,28.05,.20
19 Jul 2019 12:00,5.25,4.45,2.77,.46,21.57,.27
20 Jul 2019 00:00,6.21,5.01,3.66,.37,15.12,.16
20 Jul 2019 12:00,5.64,4.46,3.46,.49,18.10,.31
21 Jul 2019 00:00,4.85,3.93,2.83,.35,14.07,.25
21 Jul 2019 12:00,6.23,4.84,3.92,.45,14.19,.32
22 Jul 2019 00:00,5.37,4.50,2.93,.31,14.66,.25
22 Jul 2019 12:00,5.31,4.43,2.92,.33,11.45,.40
23 Jul 2019 00:00,7.58,5.95,4.70,.46,17.70,.19
23 Jul 2019 12:00,6.11,5.46,2.76,.32,10.81,.32
24 Jul 2019 00:00,5.02,4.19,2.76,.30,11.88,.24
24 Jul 2019 12:00,5.03,4.15,2.84,.32,12.54,.37
25 Jul 2019 00:00,5.69,4.85,2.96,.33,14.88,.29
25 Jul 2019 12:00,5.89,4.86,3.33,.41,17.46,.13
26 Jul 2019 00:00,5.99,4.98,3.33,.41,13.58,.16
26 Jul 2019 12:00,5.12,4.20,2.92,.35,13.13,.24
27 Jul 2019 00:00,5.72,4.76,3.16,.46,16.00,.19
27 Jul 2019 12:00,5.23,4.32,2.95,.41,18.26,.37
28 Jul 2019 00:00,4.45,3.78,2.35,.37,13.36,.41
28 Jul 2019 12:00,4.32,3.57,2.44,.36,11.50,.77
29 Jul 2019 00:00,4.44,3.62,2.57,.35,11.65,.37
29 Jul 2019 12:00,5.06,4.16,2.88,.38,12.16,.65
30 Jul 2019 00:00,5.16,4.30,2.85,.31,11.39,.38
30 Jul 2019 12:00,5.92,4.90,3.32,.39,15.01,.49